Time,TemperatureF,DewpointF,PressureIn,WindDirection,WindDirectionDegrees,WindSpeedMPH,WindSpeedGustMPH,Humidity,HourlyPrecipIn,Conditions,Clouds,dailyrainin,SolarRadiationWatts/m^2,SoftwareType,DateUTC
2013-09-18 00:12:00,52.0,39.0,-100.00,WNW,295,10.0,15.0,62,0.00,,,0.14,0.000000,,2013-09-18 07:12:00,
2013-09-18 00:22:00,52.0,39.0,-100.00,WNW,295,10.0,15.0,62,0.00,,,0.14,0.000000,,2013-09-18 07:22:00,
2013-09-18 00:32:00,52.0,39.0,-100.00,WNW,295,10.0,15.0,62,0.00,,,0.14,0.000000,,2013-09-18 07:32:00,
2013-09-18 00:42:00,52.0,39.0,-100.00,WNW,295,10.0,15.0,62,0.00,,,0.14,0.000000,,2013-09-18 07:42:00,
2013-09-18 01:12:00,52.0,38.0,-100.00,WNW,293,14.0,21.0,59,0.00,,,0.14,0.000000,,2013-09-18 08:12:00,
2013-09-18 01:22:00,52.0,38.0,-100.00,WNW,293,14.0,21.0,59,0.00,,,0.14,0.000000,,2013-09-18 08:22:00,
2013-09-18 01:32:00,52.0,38.0,-100.00,WNW,293,14.0,21.0,59,0.00,,,0.14,0.000000,,2013-09-18 08:32:00,
2013-09-18 01:42:00,52.0,38.0,-100.00,WNW,293,14.0,21.0,59,0.00,,,0.14,0.000000,,2013-09-18 08:42:00,
2013-09-18 02:12:00,50.0,36.0,-100.00,WNW,294,14.0,21.0,59,0.00,,,0.14,0.000000,,2013-09-18 09:12:00,
2013-09-18 02:22:00,50.0,36.0,-100.00,WNW,294,14.0,21.0,59,0.00,,,0.14,0.000000,,2013-09-18 09:22:00,
2013-09-18 02:33:00,50.0,36.0,-100.00,WNW,294,14.0,21.0,59,0.00,,,0.14,0.000000,,2013-09-18 09:33:00,
2013-09-18 02:43:00,50.0,36.0,-100.00,WNW,294,14.0,21.0,59,0.00,,,0.14,0.000000,,2013-09-18 09:43:00,
2013-09-18 03:13:00,49.0,36.0,-100.00,WNW,295,12.0,21.0,61,0.00,,,0.14,0.000000,,2013-09-18 10:13:00,
2013-09-18 03:23:00,49.0,36.0,-100.00,WNW,295,12.0,21.0,61,0.00,,,0.14,0.000000,,2013-09-18 10:23:00,
2013-09-18 03:33:00,49.0,36.0,-100.00,WNW,295,12.0,21.0,61,0.00,,,0.14,0.000000,,2013-09-18 10:33:00,
2013-09-18 03:42:00,49.0,36.0,-100.00,WNW,295,12.0,21.0,61,0.00,,,0.14,0.000000,,2013-09-18 10:42:00,
2013-09-18 04:12:00,51.0,38.0,-100.00,WNW,297,15.0,23.0,61,0.00,,,0.14,0.000000,,2013-09-18 11:12:00,
2013-09-18 04:22:00,51.0,38.0,-100.00,WNW,297,15.0,23.0,61,0.00,,,0.14,0.000000,,2013-09-18 11:22:00,
2013-09-18 04:33:00,51.0,38.0,-100.00,WNW,297,15.0,23.0,61,0.00,,,0.14,0.000000,,2013-09-18 11:33:00,
2013-09-18 04:42:00,51.0,38.0,-100.00,WNW,297,15.0,23.0,61,0.00,,,0.14,0.000000,,2013-09-18 11:42:00,
2013-09-18 05:12:00,50.0,37.0,-100.00,WNW,297,16.0,23.0,60,0.00,,,-99.99,0.000000,,2013-09-18 12:12:00,
2013-09-18 05:22:00,50.0,37.0,-100.00,WNW,297,16.0,23.0,60,0.00,,,-99.99,0.000000,,2013-09-18 12:22:00,
2013-09-18 05:32:00,50.0,37.0,-100.00,WNW,297,16.0,23.0,60,0.00,,,-99.99,0.000000,,2013-09-18 12:32:00,
2013-09-18 05:42:00,50.0,37.0,-100.00,WNW,297,16.0,23.0,60,0.00,,,-99.99,0.000000,,2013-09-18 12:42:00,
2013-09-18 21:14:00,51.0,37.0,-100.00,WNW,295,5.0,10.0,59,0.00,,,0.00,0.000000,,2013-09-19 04:14:00,
2013-09-18 21:25:00,51.0,37.0,-100.00,WNW,295,5.0,10.0,59,0.00,,,0.00,0.000000,,2013-09-19 04:25:00,
2013-09-18 21:33:00,51.0,37.0,-100.00,WNW,295,5.0,10.0,59,0.00,,,0.00,0.000000,,2013-09-19 04:33:00,
2013-09-18 21:43:00,51.0,37.0,-100.00,WNW,295,5.0,10.0,59,0.00,,,0.00,0.000000,,2013-09-19 04:43:00,
2013-09-18 22:23:00,49.0,37.0,-100.00,NW,313,7.0,9.0,63,0.00,,,0.00,0.000000,,2013-09-19 05:23:00,
2013-09-18 22:34:00,49.0,37.0,-100.00,NW,313,7.0,9.0,63,0.00,,,0.00,0.000000,,2013-09-19 05:34:00,
2013-09-18 22:43:00,49.0,37.0,-100.00,NW,313,7.0,9.0,63,0.00,,,0.00,0.000000,,2013-09-19 05:43:00,
2013-09-18 23:12:00,48.0,36.0,-100.00,NW,310,6.0,10.0,64,0.00,,,0.00,0.000000,,2013-09-19 06:12:00,
2013-09-18 23:22:00,48.0,36.0,-100.00,NW,310,6.0,10.0,64,0.00,,,0.00,0.000000,,2013-09-19 06:22:00,
2013-09-18 23:32:00,48.0,36.0,-100.00,NW,310,6.0,10.0,64,0.00,,,0.00,0.000000,,2013-09-19 06:32:00,
2013-09-18 23:43:00,48.0,36.0,-100.00,NW,310,6.0,10.0,64,0.00,,,0.00,0.000000,,2013-09-19 06:43:00,